CZ-6A DEB, 54360

Orbit data source: Space-Track

CZ-6A DEB, 54360 is space debris in SSO originally from a launch on Fri, 11 Nov 2022 UTC launched from the Taiyaun Space Center, China (TSC). Debris objects in space refer to the collection of defunct objects orbiting the Earth. Examples of debris include non-operational satellites, rocket bodies, and fragments generated from explosions, collisions, or faulty payload assembly.

Loading next visibility...
Identifier
54360, 2022-151DF
Orbit
SSO
Country
Flag of CNCN / PRC
Related business
Manufacturer
SAST
Mission
Spacecraft
Bus & Motor
Unknown
Mass
Unknown
Launch date (UTC)
2022-11-11 (3 years ago)
Launch vehicle
Unknown
Launch site
Taiyaun Space Center, China (TSC)
Object type
Payload
Rocket body
Debris
Shape & HBR
Unknown shape, 0.1 m
Radar Cross Section
Small (<0.1 m²)

Expand to show TLE details & history
Last TLE update: 22 hours ago

TLE from 22 hours ago
0 CZ-6A DEB
1 54360U 22151DF  25353.41852785  .00001321  00000-0  60183-3 0  9995
2 54360  98.6898 347.6501 0088230 333.5744  26.0947 14.21302814160128
Epoch: 2025-12-19T10:02Z
TLE epoch observation values (Epoch: 2025-12-19T10:02:40.806Z)
Latitude
-0.00004°
Longitude
108.72012°
Altitude
766.923 km
Speed
7.5 km/s
True Right ascension
23h 10m 36s
True Declination
0° 00' 00"
Sunlit
Object was in daylight at epoch
Visualization orbit readout
Latitude
Unknown
Longitude
Unknown
Altitude
Unknown
Speed
Unknown
Apparent Right ascension
Unknown
Apparent Declination
Unknown
Sunlit
N/A
Visualization observer readout
Local Sidereal Time
06:42:01
Azimuth
Unknown
Elevation
Unknown
Doppler factor
Unknown
Orbital elements
Apogee altitude
881.598 km
Perigee altitude
754.613 km
Semi-major axis
7,196.243 km
Eccentricity
0.00882
Inclination
98.6898°
RAAN
347.6501°
Arg. of periapsis
333.5744°
True anomaly
26.54386°
Mean anomaly
26.0947°
Eccentric anomaly
26.31883°
Mean motion
3.55537 °/min
Orbital period
101.26 mins
BSTAR
0.00060183
Loading maneuver chart data...
Computing Atmospheric mass density...
Loading historical data...
Loading historical data...
Loading historical data...
Loading historical data...
Loading historical data...
Loading historical data...
Loading historical data...

Documentation

Showing up to 5 results
|